User: anonymous   Login
Location: American Canyon
(38.1966°N, 122.1514°W)
Time: 12:41:21
(UTC+00:00)
Language:

Uosat 12 SS-18 rocket - Orbit

View from above orbital plane
View from above orbital plane
View from above satellite
View from above satellite

Ground track
Ground track

The orbit data is extracted from the following two-line orbital elements,

1 25695U 99021C   21016.85932404 -.00000053  00000-0  21329-4 0  9993
2 25695  64.5572 253.4833 0533597  54.7162 310.2604 13.72009389 88614
Epoch (UTC): 16 January 2021 20:37:25
Eccentricity: 0.0533597
inclination: 64.5572°
perigee height: 599 km
apogee height: 1385 km
right ascension of ascending node: 253.4833°
argument of perigee: 54.7162°
revolutions per day: 13.72009389
mean anomaly at epoch: 310.2604°
orbit number at epoch: 8861

The dashed part of the orbit path shows where the satellite is in the earth's shadow,  

DLR